[[{"header":{"parameterUnit":"m.s-1","parameterCategory":1,"la1":30.2991,"la2":30.254,"lo1":-89.0895,"lo2":-89.0444,"dy":0.0017,"dx":0.0017,"nx":28,"ny":28,"refTime":"2025-04-01T21:00:00:Z","depth":0,"parameterNumber":2,"parameterNumberName":"U-component_of_WINDS"},"data":[0,0,0,0,0,0,0,0,0,0,0,0,0,0,0,0,0,0,0,0,0,0,0,0,0,0,0,0,0,0,0,0,0,0,0,0,0,0,0,0,0,0,0,0,0,0,0,0,0,0,0,0,0,0,0,0,0,0,-2.2062,-2.2064,0,-2.2212,-2.2214,-2.2215,-2.2265,-2.2264,-2.2264,-2.2263,-2.2422,-2.2427,-2.2432,0,0,0,0,0,0,0,0,0,0,0,0,0,-2.1824,-2.1828,-2.2062,-2.2064,-2.2066,-2.2211,-2.2214,-2.2216,-2.2265,-2.2264,-2.2264,-2.2263,-2.2421,-2.2426,-2.2432,0,0,0,0,0,0,0,0,0,0,0,0,0,-2.1946,-2.183,-2.2062,-2.2108,-2.2113,-2.2211,-2.2214,-2.2216,-2.2265,-2.2264,-2.2263,-2.2263,-2.2419,-2.2426,-2.2433,-2.2497,0,0,-2.2455,-2.2458,0,0,0,0,0,0,0,0,-2.1939,-2.1955,-2.2099,-2.2105,-2.2111,-2.2219,-2.2188,-2.2311,-2.2266,-2.2208,-2.2263,-2.2262,-2.2356,-2.2368,-2.2399,-2.2505,-2.2512,-2.2456,-2.246,-2.2463,-2.2465,0,0,0,0,0,0,0,-2.1931,-2.1949,-2.2121,-2.2101,-2.2109,-2.2123,-2.2139,-2.2212,-2.2286,-2.2213,-2.2217,-2.2234,-2.2359,-2.2391,-2.2403,-2.2514,-2.2456,-2.2462,-2.2467,-2.2469,-2.2681,-2.2682,0,0,0,0,0,0,-2.1914,-2.1941,-2.2117,-2.2126,-2.2021,-2.2128,-2.2146,-2.2185,-2.2285,-2.2299,-2.2234,-2.2235,-2.2379,-2.2394,-2.2408,-2.249,-2.2463,-2.247,-2.2474,-2.268,-2.2682,-2.2683,0,0,0,0,0,0,-2.1908,-2.1929,-2.2111,-2.2035,-2.2059,-2.2133,-2.2177,-2.2189,-2.2221,-2.2301,-2.2315,-2.2253,-2.2379,-2.2398,-2.2475,-2.2497,-2.2473,-2.248,-2.2679,-2.268,-2.2682,-2.2655,0,0,0,0,0,0,-2.1901,-2.1926,-2.195,-2.2035,-2.2063,-2.2172,-2.2178,-2.2192,-2.2233,-2.2236,-2.2323,-2.2336,-2.238,-2.2463,-2.2482,-2.2506,-2.2486,-2.2677,-2.2679,-2.2682,-2.2654,-2.2655,-2.2657,0,0,0,0,0,-2.1893,-2.1938,-2.1951,-2.1972,-2.2094,-2.2174,-2.219,-2.2237,-2.2234,-2.226,-2.2311,-2.2334,-2.2491,-2.2471,-2.2492,-2.2519,-2.2676,-2.2679,-2.2681,-2.2653,-2.2655,-2.2657,0,0,0,0,0,0,-2.1856,-2.195,-2.1966,-2.2039,-2.2098,-2.2182,-2.2215,-2.2238,-2.23,-2.23,-2.2359,-2.2378,-2.245,-2.2492,-2.2468,-2.2587,-2.2585,-2.2592,-2.2556,-2.2559,-2.256,-2.2548,-2.2492,0,0,0,0,0,-2.1856,-2.1911,-2.1991,-2.2048,-2.2077,-2.2141,-2.2177,-2.2209,-2.2273,-2.2298,-2.2355,-2.2418,-2.2482,-2.2523,-2.2586,-2.266,-2.2681,-2.2689,-2.2691,-2.2691,-2.2697,-2.274,-2.2745,-2.2692,-2.2692,-2.2692,0,0,-2.1858,-2.1916,-2.1947,-2.2042,-2.2091,-2.2149,-2.2161,-2.2222,-2.2265,-2.2308,-2.2383,-2.2427,-2.2501,-2.2577,-2.2613,-2.2614,-2.2716,-2.2695,-2.2695,-2.2701,-2.2744,-2.2749,-2.2753,-2.2694,-2.2694,-2.2694,0,0,-2.189,-2.1939,-2.1992,-2.2041,-2.2114,-2.2156,-2.2169,-2.225,-2.228,-2.2356,-2.2389,-2.2443,-2.2551,-2.2602,-2.2643,-2.2694,-2.2717,-2.2713,-2.272,-2.2762,-2.2766,-2.277,-2.2789,-2.2795,-2.2719,-2.2718,-2.2718,0,-2.1883,-2.1969,-2.2017,-2.2075,-2.2116,-2.2156,-2.2211,-2.2256,-2.2347,-2.2376,-2.2376,-2.2512,-2.2565,-2.2653,-2.2666,-2.2697,-2.2714,-2.2704,-2.2761,-2.2766,-2.277,-2.2789,-2.2796,-2.2718,-2.2718,-2.2718,-2.2718,0,-2.1958,-2.2017,-2.2051,-2.2136,-2.2181,-2.2237,-2.2295,-2.2336,-2.2363,-2.2406,-2.2483,-2.2548,-2.2625,-2.2648,-2.2676,-2.2741,-2.2739,-2.2749,-2.2749,-2.2773,-2.2792,-2.2799,-2.2716,-2.2716,-2.2717,-2.2717,0,0,-2.1972,-2.2081,-2.2093,-2.2132,-2.2215,-2.2263,-2.2322,-2.2395,-2.2429,-2.2491,-2.2542,-2.2633,-2.2642,-2.2688,-2.2723,-2.2759,-2.2796,-2.2765,-2.2768,-2.2769,-2.2872,-2.2864,-2.2871,-2.2812,-2.2813,-2.2814,-2.2866,0,-2.2015,-2.2119,-2.2164,-2.2249,-2.2304,-2.2342,-2.2394,-2.2452,-2.2493,-2.2548,-2.2595,-2.2658,-2.2666,-2.2694,-2.2731,-2.2783,-2.2817,-2.278,-2.2862,-2.2864,-2.2842,-2.2881,-2.2873,-2.2918,-2.2873,-2.2874,-2.2875,0,-2.208,-2.2139,-2.2228,-2.2305,-2.233,-2.2375,-2.2446,-2.2497,-2.2564,-2.2592,-2.2643,-2.2675,-2.274,-2.2735,-2.2826,-2.2799,-2.2836,-2.2866,-2.2869,-2.2879,-2.2871,-2.2892,-2.2933,-2.294,-2.2887,-2.2886,-2.2885,0,-2.2081,-2.2184,-2.2251,-2.2283,-2.2374,-2.2405,-2.2445,-2.251,-2.2551,-2.2614,-2.2641,-2.2711,-2.275,-2.2804,-2.2855,-2.2846,-2.2942,-2.294,-2.2968,-2.2967,-2.2987,-2.2985,-2.3035,-2.3009,-2.3009,-2.3009,-2.3009,0,-2.2125,-2.2179,-2.2253,-2.2294,-2.2355,-2.2406,-2.2466,-2.2509,-2.2567,-2.2619,-2.2657,-2.2705,-2.2769,-2.2826,-2.2867,-2.2936,-2.2954,-2.2979,-2.2989,-2.2976,-2.2973,-2.3001,-2.2999,-2.3011,-2.301,-2.301,-2.301,0,-2.2138,-2.2189,-2.2265,-2.2344,-2.2365,-2.2407,-2.2476,-2.2518,-2.2561,-2.2626,-2.2644,-2.2712,-2.2781,-2.2837,-2.2928,-2.2955,-2.3028,-2.304,-2.3004,-2.301,-2.3034,-2.3031,-2.3105,-2.3117,-2.3082,-2.3082,-2.3083,0,-2.2163,-2.2205,-2.2287,-2.2323,-2.2362,-2.242,-2.2461,-2.2514,-2.2556,-2.2635,-2.2668,-2.2739,-2.2798,-2.2906,-2.2965,-2.3035,-2.3049,-2.307,-2.306,-2.3045,-2.305,-2.3047,-2.3052,-2.3071,-2.3071,-2.3071,-2.3071,0,-2.2202,-2.2225,-2.2282,-2.2348,-2.2396,-2.2451,-2.2508,-2.2535,-2.2599,-2.2644,-2.2713,-2.2759,-2.2851,-2.2921,-2.2997,-2.304,-2.3067,-2.3074,-2.3084,-2.3071,-2.3049,-2.3061,-2.3007,-2.3072,-2.3072,-2.3072,-2.3072,-2.3072,-2.2223,-2.2261,-2.2325,-2.2388,-2.2435,-2.2486,-2.253,-2.2577,-2.2635,-2.2712,-2.274,-2.2811,-2.2878,-2.2982,-2.3025,-2.3083,-2.3086,-2.3101,-2.3105,-2.3108,-2.3106,-2.3039,-2.3097,-2.3097,-2.3097,-2.3097,-2.3097,0,-2.2264,-2.2306,-2.2363,-2.244,-2.2489,-2.2507,-2.257,-2.2611,-2.2672,-2.2731,-2.2788,-2.2868,-2.2936,-2.3,-2.3072,-2.3106,-2.312,-2.3123,-2.3122,-2.3131,-2.3099,-2.3083,-2.311,-2.311,-2.311,-2.311,-2.311,-2.311,-2.2292,-2.2358,-2.2388,-2.2479,-2.2522,-2.259,-2.2624,-2.2673,-2.272,-2.2806,-2.2862,-2.2902,-2.2964,-2.304,-2.3104,-2.3121,-2.3146,-2.3146,-2.3167,-2.3135,-2.3133,-2.3132,-2.3117,-2.3151,-2.3151,-2.3194,-2.3195,-2.3195]},{"header":{"parameterUnit":"m.s-1","parameterCategory":1,"la1":30.2991,"la2":30.254,"lo1":-89.0895,"lo2":-89.0444,"dy":0.0017,"dx":0.0017,"nx":28,"ny":28,"refTime":"2025-04-01T21:00:00:Z","depth":0,"parameterNumber":3,"parameterNumberName":"V-component_of_WINDS"},"data":[0,0,0,0,0,0,0,0,0,0,0,0,0,0,0,0,0,0,0,0,0,0,0,0,0,0,0,0,0,0,0,0,0,0,0,0,0,0,0,0,0,0,0,0,0,0,0,0,0,0,0,0,0,0,0,0,0,0,5.0362,5.0362,0,5.0389,5.039,5.039,5.0352,5.035,5.0349,5.0348,5.0379,5.0381,5.0383,0,0,0,0,0,0,0,0,0,0,0,0,0,5.028,5.0282,5.0362,5.0362,5.0362,5.0389,5.039,5.039,5.0352,5.035,5.0349,5.0347,5.0378,5.038,5.0383,0,0,0,0,0,0,0,0,0,0,0,0,0,5.0313,5.0283,5.0362,5.0347,5.0346,5.0389,5.039,5.039,5.0352,5.035,5.0348,5.0346,5.0377,5.038,5.0383,5.0444,0,0,5.0393,5.0394,0,0,0,0,0,0,0,0,5.0311,5.0316,5.0349,5.0348,5.0347,5.0365,5.0372,5.0408,5.0353,5.035,5.0348,5.0345,5.0376,5.0379,5.0389,5.0445,5.0446,5.0393,5.0395,5.0396,5.0397,0,0,0,0,0,0,0,5.0309,5.0314,5.0373,5.0349,5.0348,5.034,5.0342,5.0379,5.0374,5.035,5.0347,5.0351,5.0375,5.0386,5.0389,5.0447,5.0393,5.0396,5.0398,5.0399,5.0558,5.056,0,0,0,0,0,0,5.0308,5.0313,5.0372,5.0374,5.0323,5.0343,5.0346,5.0361,5.0374,5.0373,5.0353,5.0349,5.0381,5.0386,5.039,5.0464,5.0396,5.0399,5.0401,5.0555,5.0558,5.0561,0,0,0,0,0,0,5.0306,5.0313,5.0371,5.0342,5.0349,5.0347,5.0364,5.0363,5.0374,5.0376,5.0375,5.0364,5.038,5.0386,5.0431,5.0465,5.0401,5.0404,5.0553,5.0556,5.0559,5.0611,0,0,0,0,0,0,5.0304,5.0313,5.0335,5.0343,5.0351,5.041,5.0366,5.0365,5.0379,5.0374,5.0386,5.0386,5.0379,5.0427,5.0434,5.0468,5.0406,5.055,5.0554,5.0558,5.0606,5.0616,5.0624,0,0,0,0,0,5.0301,5.0348,5.0336,5.0344,5.0378,5.0412,5.0417,5.0406,5.0381,5.0405,5.0406,5.0386,5.0459,5.0432,5.044,5.0475,5.0548,5.0553,5.0558,5.0603,5.0614,5.0624,0,0,0,0,0,0,5.0344,5.0349,5.0336,5.0386,5.0399,5.0406,5.0434,5.0418,5.0439,5.0434,5.0421,5.0424,5.0473,5.0478,5.0447,5.0536,5.05,5.0507,5.0531,5.0542,5.055,5.0549,5.0409,0,0,0,0,0,5.036,5.0386,5.0389,5.0434,5.0441,5.0437,5.0451,5.0442,5.0455,5.046,5.0465,5.048,5.0506,5.0524,5.0548,5.0607,5.061,5.0635,5.0644,5.0651,5.0658,5.0692,5.0704,5.0578,5.0578,5.0578,0,0,5.0392,5.0398,5.0415,5.0443,5.0451,5.0481,5.0441,5.0473,5.0496,5.0465,5.0509,5.0514,5.0529,5.0582,5.0605,5.0588,5.0693,5.0658,5.0663,5.0666,5.0699,5.0711,5.0721,5.0581,5.0581,5.058,0,0,5.0466,5.0472,5.0511,5.0521,5.0535,5.0532,5.0541,5.0551,5.0552,5.0596,5.0575,5.0602,5.0647,5.0659,5.0672,5.0753,5.0736,5.0761,5.0808,5.0841,5.0851,5.086,5.0892,5.0903,5.0768,5.0768,5.0768,0,5.0505,5.0547,5.0533,5.0568,5.0582,5.0555,5.0596,5.0607,5.0628,5.0639,5.0618,5.0676,5.0685,5.0742,5.0762,5.0772,5.0784,5.076,5.0851,5.0859,5.0867,5.0898,5.0909,5.0771,5.077,5.077,5.077,0,5.0595,5.0625,5.0655,5.0676,5.0693,5.0731,5.0725,5.0744,5.0734,5.0734,5.078,5.0789,5.0816,5.0829,5.0819,5.0886,5.0874,5.0852,5.0816,5.0883,5.0911,5.0922,5.0775,5.0774,5.0773,5.0772,0,0,5.0697,5.0711,5.0723,5.0734,5.0748,5.0771,5.0809,5.0834,5.0853,5.0868,5.0901,5.0941,5.0921,5.0935,5.0927,5.0956,5.1024,5.0931,5.0931,5.095,5.1101,5.1119,5.1132,5.1012,5.1014,5.1016,5.11,0,5.0773,5.0836,5.0827,5.0889,5.0918,5.0894,5.0927,5.094,5.0942,5.0968,5.0969,5.0999,5.0969,5.0978,5.1006,5.1009,5.1054,5.1003,5.1045,5.1046,5.1043,5.1146,5.1165,5.1244,5.1111,5.1113,5.1114,0,5.087,5.089,5.0955,5.0967,5.0979,5.1008,5.1033,5.1057,5.1073,5.1072,5.1088,5.1075,5.1115,5.1077,5.1133,5.1098,5.1115,5.1119,5.1122,5.1127,5.1085,5.1157,5.1269,5.1282,5.1131,5.1129,5.1128,0,5.0941,5.0984,5.1029,5.1039,5.1053,5.1075,5.1082,5.1095,5.1113,5.1134,5.1146,5.1171,5.1186,5.1208,5.1203,5.1175,5.1261,5.1222,5.1264,5.1264,5.1284,5.1283,5.1403,5.1291,5.1291,5.1291,5.129,0,5.1028,5.107,5.1062,5.109,5.1137,5.1126,5.1173,5.1177,5.1189,5.1219,5.12,5.1229,5.122,5.1249,5.1245,5.1294,5.13,5.1302,5.1301,5.1305,5.1305,5.1317,5.1312,5.1294,5.1293,5.1292,5.1292,0,5.1117,5.1112,5.1161,5.117,5.1174,5.1208,5.1217,5.1245,5.1245,5.1283,5.1292,5.1293,5.1326,5.1323,5.136,5.1358,5.1419,5.141,5.1413,5.1412,5.1455,5.1452,5.1589,5.1607,5.1481,5.1482,5.1483,0,5.1173,5.1205,5.1218,5.1237,5.1246,5.1275,5.1293,5.1284,5.1303,5.1324,5.135,5.1381,5.1406,5.1461,5.1466,5.1495,5.1488,5.1534,5.1493,5.1497,5.1492,5.1491,5.1496,5.1543,5.1544,5.1546,5.1546,0,5.1276,5.1273,5.1298,5.1324,5.1346,5.1365,5.1383,5.14,5.1393,5.1416,5.1449,5.1469,5.1507,5.154,5.1568,5.1577,5.1562,5.1559,5.1571,5.1577,5.1578,5.1581,5.1438,5.1557,5.1556,5.1555,5.1554,5.1554,5.1352,5.138,5.1395,5.1424,5.1437,5.1455,5.1482,5.1485,5.1513,5.1543,5.1536,5.1575,5.1592,5.1628,5.164,5.1672,5.1655,5.1671,5.1676,5.1681,5.1687,5.1572,5.1676,5.1676,5.1676,5.1676,5.1675,0,5.1456,5.1464,5.1492,5.1518,5.1542,5.1524,5.1544,5.1566,5.16,5.1616,5.1641,5.1682,5.1713,5.1721,5.1752,5.1776,5.177,5.1785,5.1784,5.1787,5.1698,5.1686,5.1789,5.1789,5.1789,5.1789,5.1789,5.1789,5.1513,5.156,5.1559,5.1614,5.1622,5.1659,5.1672,5.1689,5.1703,5.1748,5.1775,5.1779,5.1793,5.1825,5.1854,5.1856,5.187,5.1888,5.1887,5.1804,5.1793,5.1782,5.1771,5.189,5.189,5.1973,5.1974,5.1975]}]]